SL-24 DEB

Satellite information

Favourite Embed

Satellite Type and Status

DEBRISIN ORBIT

Key statistics

Satellite SL-24 DEB at a glance.

Uptime

5886

Days in orbit

Revolutions

≈ 14.8

Per day

Orbit

SSO

Sun Synchronous Orbit

Inclination

97.6

Latest

Satellite identification and parameters

Extended collection of information and parameters for SL-24 DEB.

Object identification

Identified? True

Debris? True

Object name: SL-24 DEB

International designator: 2009-041J

Object number (NORAD): 35689

Object ID (CCSDS): 35689

Country: COMMONWEALTH OF INDEPENDENT STATES (CIS)

Current information (Y/N): Y

RCS size: LARGE

Orbital parameters

Period: 97.061 minutes

Inclination: 97.6246 deg

SMA: 6996.121 km

Apoapsis: 632.829 km

Periapsis: 603.143 km

RAAN: 68.8322 deg

Eccentricy: 0.00212162

Argument of periapsis: 112.2924 deg

Mean anomaly: 248.0543 deg

Mean motion: 14.8359983 rev/day

Mean motion (dot): 0.00002826 rev/day2

B* drag term: 0.00034759992 1/REarth

Two-line elements (TLE)

Creation date: Sept. 8, 2025, 6:18 p.m.

Reference frame: TEME

Reference center: EARTH

Epoch: Sept. 8, 2025, 11:37 a.m. UTC

TLE line 0: 0 SL-24 DEB

TLE line 1: 1 35689U 09041J 25251.48403854 .00002826 00000-0 34760-3 0 9997

TLE line 2: 2 35689 97.6246 68.8322 0021216 112.2924 248.0543 14.83599830867297

Live tracking on map

Real-time ground track for satellite SL-24 DEB.

In-orbit conjunctions

A list of the most updated potential collisions computed for object SL-24 DEB.

Target Orbit TCA Probability of collision Miss distance Type
CZ-4 DEB SSO 2025-03-15 02:02:20 0.0002035104 357.0 (m) DEBRIS

Associated space launch

Emirati Earth observation satellite. Launched with 5 secondary payloads.

SL-24 DEB was lifted into orbit during the mission ‘Dnepr | DubaiSat 1’, on board a Dnepr space rocket.

The launch took place on July 29, 2009, 6:46 p.m. from 109/95.

For more information about the launch, click the button.

Launch to space Dnepr | DubaiSat 1
Dnepr | DubaiSat 1

Agency: N/A

Status: Launch Successful

Launch date: July 29, 2009, 6:46 p.m. UTC

Rocket: Dnepr

Launch pad: 109/95

Location: Baikonur Cosmodrome, Republic of Kazakhstan

...

Latest news about this satellite

There are no fresh news available about this satellite. Check back as we update our databases every day.


Newsletter sign-up

Weekly statistics, charts and insights to help you stay on top of the space industry.